Regional Weather Roundup
Issued by NWS Mt. Holly, NJ

Home | Current Version | Previous Version | Text Only | Print | Product List | Glossary On
Versions: 1 2 3 4 5 6 7 8 9 10 11 12 13 14 15 16 17 18 19 20 21 22 23 24 25 26 27
000
ASUS41 KPHI 271012
RWRPHI

REGIONAL WEATHER ROUNDUP
NATIONAL WEATHER SERVICE MOUNT HOLLY NJ
600 AM EDT TUE JUN 27 2017

NOTE:  "FAIR" INDICATES FEW OR NO CLOUDS BELOW 12,000 FEET WITH NO
SIGNIFICANT WEATHER AND/OR OBSTRUCTIONS TO VISIBILITY.

 * = STATION DOES NOT REPORT PRECIPITATION (E.G. RAIN, SNOW, ETC.)
        OR FOG.

NJZ015>026-271100-
SOUTHERN NEW JERSEY

CITY           SKY/WX    TMP DP  RH WIND       PRES   REMARKS
POMONA         NOT AVBL
WRIGHTSTOWN    CLOUDY    59  58  94 SE6       29.97F
TRENTON        MOCLDY    61  57  88 MISG      29.99

$$
NJZ001>014-271100-
NORTHERN NEW JERSEY

CITY           SKY/WX    TMP DP  RH WIND       PRES   REMARKS
ANDOVER*         N/A     57  55  93 CALM      30.01R
MORRISTOWN     CLOUDY    59  59 100 CALM      30.00F
NEWARK         LGT RAIN  62  57  83 E3        30.01R
TETERBORO      LGT RAIN  61  59  94 SE3       30.01  FOG

$$
PAZ043-044-047-054-055-060>062-066>071-271100-
EASTERN PENNSYLVANIA

CITY           SKY/WX    TMP DP  RH WIND       PRES   REMARKS
PHILADELPHIA   PTCLDY    62  59  90 E5        30.00R
NORTH PHILA    PTCLDY    63  59  88 CALM      30.01
BLUE BELL*       N/A     57  57 100 CALM      30.02R VSB 1/2
QUAKERTOWN*    PTCLDY    57  57 100 CALM      30.02R
PERKASIE*      FOG       55  55 100 CALM      30.02R VSB 3/4
LANCASTER      CLEAR     61  59  94 W3        30.01
COATESVILLE    MOCLDY    57  57 100 NW3       30.02R
READING        NOT AVBL
ALLENTOWN      NOT AVBL
MOUNT POCONO   NOT AVBL
HAZLETON         N/A     52  48  87 CALM      30.05R FOG
LEHIGHTON      FAIR      55  55 100 CALM      30.02S
WILKES BARRE   NOT AVBL

$$
DEZALL-MDZ008-012-015-019-020-271100-
DELAWARE AND EASTERN MARYLAND

CITY           SKY/WX    TMP DP  RH WIND       PRES   REMARKS
WILMINGTON     NOT AVBL
DOVER          CLEAR     61  61 100 CALM      29.98R
GEORGETOWN     NOT AVBL
EASTON         PTCLDY    64  59  82 CALM      30.03S
ABERDEEN       MOCLDY    61  55  82 CALM      30.00
PATUXENT       CLOUDY    70  56  61 N7        29.99S
OCEAN CITY     PTCLDY    70  66  87 SW6       29.99S
WALLOPS ISLAND CLEAR     65  63  93 S7        29.99S
CAMBRIDGE      PTCLDY    61  59  94 CALM      30.00R
SALISBURY      CLEAR     63  60  90 CALM      29.99R

$$
PAZ001-021-NYZ056-072-MDZ011-DCZ001-271100-
OTHER NEARBY LOCATIONS

CITY           SKY/WX    TMP DP  RH WIND       PRES   REMARKS
HARRISBURG     CLOUDY    61  60  97 MISG      30.01R
STATE COLLEGE  PTCLDY    55  52  88 CALM      30.03R
BINGHAMTON     NOT AVBL
NEW YORK CITY  LGT RAIN  61  60  97 CALM      30.04S FOG
BALTIMORE      MOCLDY    63  57  81 W3        30.01R
WASHINGTON DC  CLOUDY    70  51  51 NW9       30.03R

$$




USA.gov is the U.S. government's official web portal to all federal, state and local government web resources and services.